FW3119 Weather Reports


time (UTC)temp
C
wind
direction
speed
KPH
gust
KPH
rain 1hr
cm
rain 24hr
cm
rain mn
cm
humidity
%
barometer
mb
20260510060030 8 193 0.0 0.0 0.00 1.45 0.00 95 944.9
20260510054521 8 90 0.0 0.0 0.00 1.45 0.00 96 945.2
20260510051522 8 74 0.0 0.0 0.00 1.45 0.00 96 945.6
20260510050018 8 337 0.0 0.0 0.00 1.45 0.00 96 945.7
20260510044517 8 26 0.0 0.0 0.00 1.45 0.00 96 945.5
20260510041515 8 210 0.0 0.0 0.00 1.45 0.00 96 944.3
20260510040015 8 208 0.0 0.0 0.00 1.45 0.00 96 944.3
20260510034513 8 194 0.0 0.0 0.00 1.45 0.00 96 944.1
20260510031513 8 188 0.0 0.0 0.00 1.45 0.00 96 944.1
20260510030011 8 195 0.0 0.0 0.00 1.45 0.00 96 944.0
20260510024510 8 213 0.0 0.0 0.00 1.45 0.00 96 943.9
20260510021512 8 193 0.0 0.0 0.00 1.45 0.00 96 943.9
20260510020007 8 202 0.0 0.0 0.00 1.45 0.00 96 943.8
20260510014505 8 197 0.0 0.0 0.00 1.45 0.00 96 943.8
20260510011520 9 215 0.0 0.0 0.00 1.45 0.00 96 943.7
20260510010012 9 227 0.0 0.0 0.00 1.45 0.00 96 943.6
20260510004511 9 182 0.0 0.0 0.00 1.45 0.00 95 943.2
20260510001511 9 198 0.0 0.0 0.00 1.45 0.00 95 943.2
20260510000009 9 194 0.0 0.0 0.00 1.45 0.00 95 942.9
20260509234517 10 190 0.0 0.0 0.00 1.45 0.00 95 942.7
20260509231516 10 238 0.0 0.0 0.00 1.45 0.00 96 942.6
20260509230016 10 211 0.0 0.0 0.00 1.45 1.45 96 942.6
20260509224517 10 192 0.0 0.0 0.00 1.45 1.45 96 942.5
20260509221600 10 200 0.0 0.0 0.00 1.45 1.45 96 942.5
20260509220057 10 206 0.0 0.0 0.00 1.45 1.45 96 942.5
20260509214557 10 183 0.0 0.0 0.00 1.45 1.45 97 942.6
20260509211516 9 217 0.0 0.0 0.03 1.45 1.45 97 943.1
20260509210017 9 212 0.0 0.0 0.03 1.45 1.45 97 943.2
20260509204515 9 241 0.0 0.0 0.03 1.45 1.45 97 943.2
20260509201520 8 174 0.0 0.0 0.08 1.42 1.42 97 943.5
20260509200019 8 164 0.0 0.0 0.10 1.42 1.42 96 943.5
20260509194519 8 250 0.0 0.0 0.15 1.42 1.42 96 943.6
20260509191546 8 221 0.0 0.0 0.20 1.40 1.40 96 943.9
20260509190046 8 187 0.0 0.0 0.18 1.35 1.35 96 943.9
20260509184546 8 224 0.0 0.0 0.20 1.32 1.32 96 943.9
20260509181542 8 189 0.0 0.0 0.15 1.22 1.22 96 943.8
20260509180041 8 223 0.0 0.0 0.10 1.17 1.17 96 943.8
20260509174540 8 166 0.0 0.0 0.08 1.14 1.14 96 943.7
20260509171550 8 180 0.0 0.0 0.05 1.09 1.09 96 943.7
20260509170059 8 220 0.0 0.0 0.03 1.07 1.07 96 943.8
20260509164550 8 174 0.0 0.0 0.05 1.07 1.07 96 943.8
20260509161554 8 188 0.0 0.0 0.08 1.04 1.04 96 944.0
20260509160046 8 169 0.0 0.0 0.10 1.04 1.04 96 944.2
20260509154545 8 211 0.0 0.0 0.10 1.02 1.02 96 944.5
20260509151550 8 150 0.0 0.0 0.13 0.97 0.97 96 945.0
20260509150103 8 186 0.0 0.0 0.13 0.94 0.94 96 945.1
20260509144551 7 213 0.0 0.0 0.10 0.91 0.91 96 945.2
20260509141545 7 162 0.0 0.0 0.05 0.84 0.84 96 944.9
20260509140043 7 179 0.0 0.0 0.08 0.84 0.84 96 944.8
20260509134543 7 178 0.0 0.0 0.10 0.81 0.81 96 944.9
20260509131544 7 181 0.0 0.0 0.15 0.79 0.79 96 945.0
20260509130047 7 182 0.0 0.0 0.15 0.76 0.76 96 945.0
20260509124548 7 182 0.0 0.0 0.20 0.71 0.71 95 945.2
20260509121600 7 184 0.0 0.0 0.23 0.64 0.64 95 945.2
20260509120052 7 184 0.0 0.0 0.23 0.61 0.61 95 945.2
20260509114602 7 184 0.0 0.0 0.20 0.53 0.53 95 945.2
20260509111553 6 181 0.0 0.0 0.15 0.43 0.43 95 945.3
20260509110052 6 173 0.0 0.0 0.13 0.38 0.38 95 945.3
20260509104552 6 221 0.0 0.0 0.10 0.36 0.36 95 945.2
20260509101627 6 207 0.0 0.0 0.05 0.28 0.28 95 945.1
20260509100027 6 202 0.0 0.0 0.05 0.28 0.28 95 945.1
20260509094531 6 186 0.0 0.0 0.03 0.25 0.25 94 945.0
20260509091545 6 211 0.0 0.0 0.05 0.23 0.23 94 945.0
20260509090057 6 205 0.0 0.0 0.08 0.23 0.23 94 945.1
20260509084546 6 202 0.0 0.0 0.10 0.23 0.23 94 945.2
20260509081542 6 217 0.0 0.0 0.10 0.18 0.18 93 945.5
20260509080055 6 225 0.0 0.0 0.08 0.15 0.15 93 945.5
20260509074540 6 175 0.0 0.0 0.08 0.13 0.13 92 945.6
20260509071521 6 219 0.0 0.0 0.05 0.08 0.08 91 945.5
20260509070017 6 220 0.0 0.0 0.08 0.08 0.08 91 945.5
20260509064515 6 136 0.0 0.0 0.05 0.05 0.05 89 945.6
20260509061528 6 133 0.0 0.0 0.03 0.03 0.03 86 945.8